Location: Bellerive
(46.9237°N, 7.0223°E)
Time: 13:03:12
(UTC+00:00)

Cosmos 2154 Rocket - Pass Details

Date: 09 April 2020
Orbit: 965 x 997 km, 82.9° (Epoch: 24 May)

Event Time Altitude Azimuth Distance (km) Brightness Sun altitude
Rises 19:22:51 0° 350° (N) 3,729 7.6 -12.1°
Reaches altitude 10° 19:25:24 10° 349° (N) 2,774 6.9 -12.5°
Maximum altitude 19:31:46 79° 264° (W) 1,016 4.2 -13.5°
Drops below altitude 10° 19:38:03 10° 179° (S) 2,739 6.1 -14.4°
Sets 19:40:33 0° 178° (S) 3,678 6.7 -14.8°
